Esquimalt Harbour, British Columbia

7:10 PM PDT on August 23, 2016 (GMT -0700)
Esquimalt Harbour

Weather History for CWPF - January, 2013

Change the Weather History Date:

Monday, January 7, 2013

  Actual Average (CYWH) Record (CYWH)
Temperature  
Mean Temperature 44 °F -  
Max Temperature 47 °F 44 °F 53 °F (2002)
Min Temperature 41 °F 38 °F 32 °F (2005)
Degree Days  
Heating Degree Days 21    
Moisture  
Dew Point -    
Average Humidity    
Maximum Humidity    
Minimum Humidity    
Precipitation  
Precipitation 0.56 in - - ()
Sea Level Pressure  
Sea Level Pressure 29.90 in    
Wind  
Wind Speed 9 mph ()    
Max Wind Speed 31 mph    
Max Gust Speed 39 mph    
Averages and records for this station are not official NWS values.
T = Trace of Precipitation, MM = Missing Value Source: Averaged Metar Reports

Daily Weather History Graph

Daily Weather History Graph

Search for Another Location

Airport or City:

Trip Planner

Search our weather history database for the weather conditions in past years. The results will help you decide how hot, cold, wet, or windy it might be!

Date:

Astronomy

Jan. 07, 2013 Rise Set
Actual Time 8:04 AM PST 4:36 PM PST
Civil Twilight 7:28 AM PST 5:12 PM PST
Nautical Twilight 6:48 AM PST 5:52 PM PST
Astronomical Twilight 6:10 AM PST 6:30 PM PST
Moon 3:29 AM PST (1/7) 12:55 PM PST (1/7)
Length of Visible Light 9h 44m
Length of Day
8h 32m
Waning Crescent, 21% of the Moon is Illuminated
Jan 7
Waning Crescent
Jan 11
New
Jan 18
First Quarter
Jan 26
Full
Feb 3
Last Quarter

Hourly Weather History & Observations

Time (PST) Temp. Windchill Dew Point Humidity Pressure Visibility Wind Dir Wind Speed Gust Speed Precip Events Conditions
12:00 AM 41.5 °F 37.8 °F - N/A% 29.89 in - NE 5.8 mph - 0.02 in   Unknown
1:00 AM 41.7 °F 39.8 °F - N/A% 29.88 in - East 3.5 mph - 0.03 in   Unknown
2:00 AM 41.7 °F 38.8 °F - N/A% 29.87 in - NE 4.6 mph - 0.05 in   Unknown
3:00 AM 41.7 °F - - N/A% 29.86 in - ENE 2.3 mph - 0.05 in   Unknown
4:00 AM 41.2 °F - - N/A% 29.83 in - ESE 2.3 mph - 0.07 in   Unknown
5:00 AM 41.2 °F 39.2 °F - N/A% 29.78 in - NNE 3.5 mph - 0.03 in   Unknown
6:00 AM 41.2 °F 39.2 °F - N/A% 29.77 in - ENE 3.5 mph - 0.05 in   Unknown
7:00 AM 41.2 °F - - N/A% 29.76 in - Calm Calm - 0.04 in   Unknown
8:00 AM 41.2 °F - - N/A% 29.78 in - SW 2.3 mph - 0.07 in   Unknown
9:00 AM 41.7 °F 37.3 °F - N/A% 29.79 in - South 6.9 mph - 0.03 in   Unknown
10:00 AM 42.8 °F 37.5 °F - N/A% 29.81 in - South 9.2 mph - 0.04 in   Unknown
11:00 AM 44.2 °F 37.3 °F - N/A% 29.81 in - SSW 15.0 mph - 0.04 in   Unknown
12:00 PM 47.1 °F - - N/A% 29.85 in - West 16.1 mph 23.0 mph 0.02 in   Unknown
1:00 PM 47.1 °F - - N/A% 29.89 in - WSW 18.4 mph 25.3 mph 0.02 in   Unknown
2:00 PM 46.9 °F - - N/A% 29.90 in - West 24.2 mph 32.2 mph N/A   Unknown
3:00 PM 47.1 °F - - N/A% 29.92 in - West 27.6 mph 36.8 mph N/A   Unknown
4:00 PM 46.6 °F - - N/A% 29.95 in - West 29.9 mph 36.8 mph N/A   Unknown
5:00 PM 46.2 °F 36.8 °F - N/A% 29.96 in - West 31.1 mph 39.1 mph 0.02 in   Unknown
6:00 PM 46.4 °F 37.7 °F - N/A% 29.99 in - West 26.5 mph 35.7 mph N/A   Unknown
7:00 PM 46.2 °F 38.3 °F - N/A% 30.02 in - West 21.9 mph 31.1 mph N/A   Unknown
8:00 PM 45.9 °F 38.8 °F - N/A% 30.05 in - West 17.3 mph 23.0 mph N/A   Unknown
9:00 PM 45.5 °F 39.6 °F - N/A% 30.08 in - West 12.7 mph 19.6 mph N/A   Unknown
10:00 PM 45.5 °F 40.3 °F - N/A% 30.09 in - WNW 10.4 mph - N/A   Unknown
11:00 PM 45.1 °F 42.8 °F - N/A% 30.11 in - WSW 4.6 mph - N/A   Unknown